SR9NCI Weather Reports


time (UTC)temp
C
wind
direction
speed
KPH
gust
KPH
rain 1hr
cm
rain 24hr
cm
rain mn
cm
humidity
%
barometer
mb
20260831201918 21 338 0.0 0.0 0.00 0.00 0.00
20260831201517 21 338 0.0 0.0 0.00 0.00 0.00
20260831201114 21 338 0.0 0.0 0.00 0.00 0.00
20260831200713 21 338 0.0 0.0 0.00 0.00 0.00
20260831200312 21 338 0.0 0.0 0.00 0.00 0.00
20260831195911 22 338 0.0 0.0 0.00 0.00 0.00
20260831195508 21 338 0.0 0.0 0.00 0.00 0.00
20260831195100 21 338 0.0 0.0 0.00 0.00 0.00
20260831194658 21 338 0.0 1.6 0.00 0.00 0.00
20260831194257 21 338 0.0 0.0 0.00 0.00 0.00
20260831193856 21 338 0.0 1.6 0.00 0.00 0.00
20260831193453 21 338 0.0 3.2 0.00 0.00 0.00
20260831193052 21 338 1.6 3.2 0.00 0.00 0.00
20260831192249 21 338 3.2 4.8 0.00 0.00 0.00
20260831191847 21 338 1.6 4.8 0.00 0.00 0.00
20260831191445 21 338 1.6 3.2 0.00 0.00 0.00
20260831191037 21 338 1.6 3.2 0.00 0.00 0.00
20260831190635 21 333 1.6 4.8 0.00 0.00 0.00
20260831190233 22 315 0.0 3.2 0.00 0.00 0.00
20260831185431 22 292 0.0 3.2 0.00 0.00 0.00
20260831185029 22 293 1.6 6.4 0.00 0.00 0.00
20260831184626 22 292 1.6 4.8 0.00 0.00 0.00
20260831184226 22 292 1.6 4.8 0.00 0.00 0.00
20260831183825 22 295 4.8 11.3 0.00 0.00 0.00
20260831183423 22 292 3.2 8.0 0.00 0.00 0.00
20260831183015 22 292 3.2 9.7 0.00 0.00 0.00
20260831182612 22 288 4.8 9.7 0.00 0.00 0.00
20260831182211 22 292 1.6 4.8 0.00 0.00 0.00
20260831181810 22 292 3.2 4.8 0.00 0.00 0.00
20260831181408 22 292 3.2 6.4 0.00 0.00 0.00
20260831181006 22 292 3.2 4.8 0.00 0.00 0.00
20260831180604 23 270 3.2 3.2 0.00 0.00 0.00
20260831180203 23 270 3.2 3.2 0.00 0.00 0.00
20260831175802 23 270 3.2 4.8 0.00 0.00 0.00
20260831175359 23 270 3.2 4.8 0.00 0.00 0.00
20260831174951 23 270 3.2 4.8 0.00 0.00 0.00
20260831174549 23 270 4.8 8.0 0.00 0.00 0.00
20260831174148 23 270 6.4 8.0 0.00 0.00 0.00
20260831173746 23 270 6.4 9.7 0.00 0.00 0.00
20260831173344 23 270 4.8 9.7 0.00 0.00 0.00
20260831172943 23 270 4.8 6.4 0.00 0.00 0.00
20260831172542 23 270 4.8 9.7 0.00 0.00 0.00
20260831172140 24 270 6.4 8.0 0.00 0.00 0.00
20260831171738 24 272 6.4 9.7 0.00 0.00 0.00
20260831171336 24 269 8.0 11.3 0.00 0.00 0.00
20260831170928 24 272 6.4 9.7 0.00 0.00 0.00
20260831170527 25 265 9.7 14.5 0.00 0.00 0.00
20260831170124 25 256 6.4 11.3 0.00 0.00 0.00
20260831165724 25 244 8.0 12.9 0.00 0.00 0.00
20260831165322 26 254 8.0 16.1 0.00 0.00 0.00
20260831164921 27 262 4.8 11.3 0.00 0.00 0.00
20260831164518 27 249 4.8 8.0 0.00 0.00 0.00
20260831164117 27 248 6.4 12.9 0.00 0.00 0.00
20260831163716 28 268 4.8 9.7 0.00 0.00 0.00
20260831163314 27 256 8.0 12.9 0.00 0.00 0.00
20260831162905 27 254 8.0 14.5 0.00 0.00 0.00
20260831162502 27 261 8.0 12.9 0.00 0.00 0.00
20260831162101 25 266 6.4 11.3 0.00 0.00 0.00
20260831161700 25 254 8.0 11.3 0.00 0.00 0.00
20260831161258 26 255 6.4 9.7 0.00 0.00 0.00
20260831160856 25 252 8.0 12.9 0.00 0.00 0.00
20260831160453 25 265 6.4 9.7 0.00 0.00 0.00
20260831160052 25 255 8.0 11.3 0.00 0.00 0.00
20260831155651 25 265 6.4 9.7 0.00 0.00 0.00
20260831155248 25 258 11.3 14.5 0.00 0.00 0.00
20260831154840 25 255 8.0 12.9 0.00 0.00 0.00
20260831154438 25 259 9.7 19.3 0.00 0.00 0.00
20260831154037 25 261 8.0 12.9 0.00 0.00 0.00
20260831153635 26 236 8.0 19.3 0.00 0.00 0.00
20260831153233 26 258 14.5 19.3 0.00 0.00 0.00
20260831152832 26 259 14.5 19.3 0.00 0.00 0.00
20260831152430 26 255 14.5 20.9 0.00 0.00 0.00
20260831152028 26 272 9.7 16.1 0.00 0.00 0.00
20260831151627 26 232 12.9 17.7 0.00 0.00 0.00
20260831151225 26 236 11.3 20.9 0.00 0.00 0.00
20260831150818 25 235 16.1 22.5 0.00 0.00 0.00
20260831150416 25 230 12.9 16.1 0.00 0.00 0.00
20260831150014 25 243 12.9 19.3 0.00 0.00 0.00
20260831145613 25 260 14.5 17.7 0.00 0.00 0.00
20260831145211 25 263 16.1 20.9 0.00 0.00 0.00
20260831144810 25 263 16.1 24.1 0.00 0.00 0.00
20260831144506 25 269 9.7 14.5 0.00 0.00 0.00
20260831144407 25 254 17.7 27.4 0.00 0.00 0.00
20260831144005 25 263 14.5 24.1 0.00 0.00 0.00
20260831143604 25 269 9.7 14.5 0.00 0.00 0.00
20260831143310 25 243 14.5 19.3 0.00 0.00 0.00
20260831143202 25 243 14.5 19.3 0.00 0.00 0.00
20260831142753 25 236 14.5 22.5 0.00 0.00 0.00
20260831142351 26 235 14.5 22.5 0.00 0.00 0.00
20260831141950 25 244 12.9 16.1 0.00 0.00 0.00
20260831141549 26 254 11.3 16.1 0.00 0.00 0.00
20260831141146 26 231 14.5 19.3 0.00 0.00 0.00
20260831140343 25 251 12.9 22.5 0.00 0.00 0.00
20260831135942 25 255 14.5 22.5 0.00 0.00 0.00
20260831135541 25 260 14.5 22.5 0.00 0.00 0.00
20260831135138 25 251 14.5 19.3 0.00 0.00 0.00
20260831134730 25 252 14.5 22.5 0.00 0.00 0.00
20260831134328 26 247 12.9 20.9 0.00 0.00 0.00
20260831133928 25 250 16.1 20.9 0.00 0.00 0.00
20260831133525 25 259 14.5 27.4 0.00 0.00 0.00
20260831133124 25 258 14.5 22.5 0.00 0.00 0.00
20260831132723 25 256 12.9 19.3 0.00 0.00 0.00
20260831132321 25 245 16.1 22.5 0.00 0.00 0.00
20260831131919 24 255 14.5 25.7 0.00 0.00 0.00
20260831131518 25 254 11.3 17.7 0.00 0.00 0.00
20260831131116 25 261 12.9 17.7 0.00 0.00 0.00
20260831130708 24 271 16.1 24.1 0.00 0.00 0.00
20260831130305 24 267 14.5 20.9 0.00 0.00 0.00
20260831125903 24 264 12.9 19.3 0.00 0.00 0.00
20260831125502 24 272 17.7 27.4 0.00 0.00 0.00
20260831125100 24 268 12.9 22.5 0.00 0.00 0.00
20260831124659 23 269 11.3 17.7 0.00 0.00 0.00
20260831124256 23 277 19.3 29.0 0.00 0.00 0.00
20260831123856 24 272 19.3 30.6 0.00 0.00 0.00
20260831123454 25 278 11.3 27.4 0.00 0.00 0.00
20260831123053 25 274 16.1 22.5 0.00 0.00 0.00
20260831123006 25 274 16.1 22.5 0.00 0.00 0.00
20260831122643 25 274 16.1 22.5 0.00 0.00 0.00
20260831122242 26 269 12.9 16.1 0.00 0.00 0.00
20260831121841 26 277 14.5 19.3 0.00 0.00 0.00
20260831121440 26 272 17.7 29.0 0.00 0.00 0.00
20260831121037 26 284 14.5 19.3 0.00 0.00 0.00
20260831120636 26 294 17.7 29.0 0.00 0.00 0.00
20260831120233 27 260 14.5 27.4 0.00 0.00 0.00
20260831115832 27 257 12.9 19.3 0.00 0.00 0.00
20260831115430 27 246 12.9 16.1 0.00 0.00 0.00
20260831115028 27 271 12.9 22.5 0.00 0.00 0.00
20260831114620 27 248 11.3 14.5 0.00 0.00 0.00
20260831114217 27 267 6.4 9.7 0.00 0.00 0.00
20260831113817 27 260 8.0 11.3 0.00 0.00 0.00
20260831113414 27 306 4.8 8.0 0.00 0.00 0.00
20260831113012 27 299 4.8 8.0 0.00 0.00 0.00
20260831112612 27 344 4.8 8.0 0.00 0.00 0.00
20260831112210 27 315 3.2 6.4 0.00 0.00 0.00
20260831111808 27 305 4.8 8.0 0.00 0.00 0.00
20260831111407 26 308 8.0 11.3 0.00 0.00 0.00
20260831111004 27 333 4.8 9.7 0.00 0.00 0.00
20260831110556 26 321 6.4 9.7 0.00 0.00 0.00
20260831110153 27 326 6.4 9.7 0.00 0.00 0.00
20260831105752 27 157 4.8 8.0 0.00 0.00 0.00
20260831105352 28 157 1.6 3.2 0.00 0.00 0.00
20260831104950 27 157 4.8 6.4 0.00 0.00 0.00
20260831104548 27 157 3.2 4.8 0.00 0.00 0.00
20260831104146 27 157 6.4 9.7 0.00 0.00 0.00
20260831103820 27 157 6.4 11.3 0.00 0.00 0.00
20260831103745 27 157 6.4 11.3 0.00 0.00 0.00
20260831103344 27 157 8.0 11.3 0.00 0.00 0.00
20260831102533 27 195 9.7 12.9 0.00 0.00 0.00
20260831102131 27 197 9.7 14.5 0.00 0.00 0.00
20260831101730 27 205 8.0 14.5 0.00 0.00 0.00
20260831101329 27 207 6.4 12.9 0.00 0.00 0.00
20260831100926 27 194 12.9 20.9 0.00 0.00 0.00
20260831100525 27 174 8.0 16.1 0.00 0.00 0.00
20260831100123 27 196 8.0 14.5 0.00 0.00 0.00
20260831095722 27 157 3.2 6.4 0.00 0.00 0.00
20260831095320 27 135 0.0 3.2 0.00 0.00 0.00
20260831094918 27 135 4.8 8.0 0.00 0.00 0.00
20260831094510 27 135 4.8 6.4 0.00 0.00 0.00
20260831094108 27 135 3.2 6.4 0.00 0.00 0.00
20260831093706 27 135 4.8 11.3 0.00 0.00 0.00
20260831093305 27 135 4.8 9.7 0.00 0.00 0.00
20260831092502 27 135 9.7 16.1 0.00 0.00 0.00
20260831092100 27 130 6.4 9.7 0.00 0.00 0.00
20260831091658 27 135 8.0 12.9 0.00 0.00 0.00
20260831091257 27 132 8.0 11.3 0.00 0.00 0.00
20260831090855 27 135 6.4 11.3 0.00 0.00 0.00
20260831090447 27 132 8.0 12.9 0.00 0.00 0.00
20260831090044 27 132 8.0 12.9 0.00 0.00 0.00
20260831085643 27 140 8.0 12.9 0.00 0.00 0.00
20260831085242 27 144 8.0 14.5 0.00 0.00 0.00
20260831084840 28 137 6.4 12.9 0.00 0.00 0.00
20260831084438 27 138 8.0 16.1 0.00 0.00 0.00
20260831084036 27 136 8.0 12.9 0.00 0.00 0.00
20260831083635 27 142 11.3 19.3 0.00 0.00 0.00
20260831083234 27 131 8.0 14.5 0.00 0.00 0.00
20260831082831 27 135 8.0 16.1 0.00 0.00 0.00
20260831082423 27 135 8.0 9.7 0.00 0.00 0.00
20260831082021 26 135 6.4 11.3 0.00 0.00 0.00
20260831081620 26 131 6.4 12.9 0.00 0.00 0.00
20260831081219 26 135 6.4 11.3 0.00 0.00 0.00
20260831080816 26 133 11.3 16.1 0.00 0.00 0.00
20260831080415 26 133 11.3 19.3 0.00 0.00 0.00
20260831080013 26 140 9.7 14.5 0.00 0.00 0.00
20260831075613 26 143 9.7 14.5 0.00 0.00 0.00
20260831075210 26 137 11.3 16.1 0.00 0.00 0.00
20260831074809 26 126 9.7 16.1 0.00 0.00 0.00
20260831074401 26 127 11.3 16.1 0.00 0.00 0.00
20260831073959 26 138 12.9 22.5 0.00 0.00 0.00
20260831073557 26 129 12.9 17.7 0.00 0.00 0.00
20260831073156 26 140 11.3 19.3 0.00 0.00 0.00
20260831072754 26 134 9.7 16.1 0.00 0.00 0.00
20260831072353 26 118 8.0 12.9 0.00 0.00 0.00
20260831071950 26 134 9.7 17.7 0.00 0.00 0.00
20260831071549 25 153 12.9 17.7 0.00 0.00 0.00
20260831071148 25 139 8.0 16.1 0.00 0.00 0.00
20260831070746 25 138 12.9 16.1 0.00 0.00 0.00
20260831070338 25 150 11.3 17.7 0.00 0.00 0.00
20260831065935 25 137 9.7 14.5 0.00 0.00 0.00
20260831065534 25 133 9.7 16.1 0.00 0.00 0.00
20260831065133 25 140 9.7 16.1 0.00 0.00 0.00
20260831064731 25 139 11.3 16.1 0.00 0.00 0.00
20260831064329 24 137 12.9 16.1 0.00 0.00 0.00
20260831063927 24 139 11.3 20.9 0.00 0.00 0.00
20260831063526 24 137 12.9 19.3 0.00 0.00 0.00
20260831063125 24 133 8.0 14.5 0.00 0.00 0.00
20260831062722 24 139 8.0 16.1 0.00 0.00 0.00
20260831062400 24 137 9.7 14.5 0.00 0.00 0.00
20260831062314 24 137 9.7 14.5 0.00 0.00 0.00
20260831061912 25 135 4.8 8.0 0.00 0.00 0.00
20260831061511 24 130 4.8 8.0 0.00 0.00 0.00
20260831061109 23 112 6.4 9.7 0.00 0.00 0.00
20260831060707 23 133 4.8 8.0 0.00 0.00 0.00
20260831060306 23 135 6.4 9.7 0.00 0.00 0.00
20260831055904 23 133 6.4 12.9 0.00 0.00 0.00
20260831055503 23 135 6.4 9.7 0.00 0.00 0.00
20260831055100 23 135 8.0 11.3 0.00 0.00 0.00
20260831054659 22 143 6.4 12.9 0.00 0.00 0.00
20260831054251 22 137 8.0 12.9 0.00 0.00 0.00
20260831053849 22 135 4.8 9.7 0.00 0.00 0.00
20260831053447 22 135 6.4 11.3 0.00 0.00 0.00
20260831052644 21 135 0.0 3.2 0.00 0.00 0.00
20260831052243 21 124 3.2 9.7 0.00 0.00 0.00
20260831051840 22 135 3.2 6.4 0.00 0.00 0.00
20260831051438 22 133 6.4 11.3 0.00 0.00 0.00
20260831051037 22 135 4.8 9.7 0.00 0.00 0.00
20260831050635 22 135 3.2 6.4 0.00 0.00 0.00
20260831050225 22 111 1.6 4.8 0.00 0.00 0.00
20260831045824 21 111 1.6 3.2 0.00 0.00 0.00
20260831045423 21 111 3.2 3.2 0.00 0.00 0.00
20260831045022 21 111 3.2 4.8 0.00 0.00 0.00
20260831044620 21 129 4.8 9.7 0.00 0.00 0.00
20260831044218 21 115 4.8 9.7 0.00 0.00 0.00
20260831043815 21 121 8.0 12.9 0.00 0.00 0.00
20260831043414 20 131 6.4 9.7 0.00 0.00 0.00
20260831043013 20 152 4.8 9.7 0.00 0.00 0.00
20260831042610 19 157 3.2 6.4 0.00 0.00 0.00
20260831042202 20 157 4.8 8.0 0.00 0.00 0.00
20260831041801 20 157 4.8 9.7 0.00 0.00 0.00
20260831041400 20 157 6.4 8.0 0.00 0.00 0.00
20260831040957 19 157 4.8 8.0 0.00 0.00 0.00
20260831040556 19 157 4.8 8.0 0.00 0.00 0.00
20260831040155 20 157 4.8 9.7 0.00 0.00 0.00
20260831035753 20 157 4.8 6.4 0.00 0.00 0.00
20260831035351 19 157 4.8 6.4 0.00 0.00 0.00
20260831034950 19 157 4.8 6.4 0.00 0.00 0.00
20260831034548 20 157 6.4 8.0 0.00 0.00 0.00
20260831034140 20 157 4.8 8.0 0.00 0.00 0.00
20260831033738 20 157 4.8 8.0 0.00 0.00 0.00
20260831033336 20 157 8.0 12.9 0.00 0.00 0.00
20260831032935 20 157 9.7 12.9 0.00 0.00 0.00
20260831032533 20 156 8.0 14.5 0.00 0.00 0.00
20260831032132 20 157 8.0 12.9 0.00 0.00 0.00
20260831031729 20 158 8.0 12.9 0.00 0.00 0.00
20260831031328 20 156 8.0 14.5 0.00 0.00 0.00
20260831030926 20 157 8.0 12.9 0.00 0.00 0.00
20260831030524 20 158 8.0 12.9 0.00 0.00 0.00
20260831030115 20 158 8.0 11.3 0.00 0.00 0.00
20260831025713 20 154 8.0 12.9 0.00 0.00 0.00
20260831025312 20 157 6.4 9.7 0.00 0.00 0.00
20260831024911 20 157 6.4 9.7 0.00 0.00 0.00
20260831024508 20 157 6.4 8.0 0.00 0.00 0.00
20260831024107 20 157 4.8 6.4 0.00 0.00 0.00
20260831023705 20 157 4.8 6.4 0.00 0.00 0.00
20260831023304 20 157 4.8 6.4 0.00 0.00 0.00
20260831022903 20 157 6.4 8.0 0.00 0.00 0.00
20260831022500 20 157 4.8 6.4 0.00 0.00 0.00
20260831022052 20 157 6.4 8.0 0.00 0.00 0.00
20260831021650 20 157 6.4 11.3 0.00 0.00 0.00
20260831021249 20 159 8.0 12.9 0.00 0.00 0.00
20260831020847 20 154 8.0 14.5 0.00 0.00 0.00
20260831020445 20 166 6.4 9.7 0.00 0.00 0.00
20260831020044 20 165 8.0 11.3 0.00 0.00 0.00
20260831015642 20 157 8.0 11.3 0.00 0.00 0.00
20260831015240 20 157 6.4 9.7 0.00 0.00 0.00
20260831014839 20 157 6.4 9.7 0.00 0.00 0.00
20260831014437 20 157 8.0 9.7 0.00 0.00 0.00
20260831014030 20 152 8.0 12.9 0.00 0.00 0.00
20260831013627 20 152 8.0 12.9 0.00 0.00 0.00
20260831013226 20 157 6.4 9.7 0.00 0.00 0.00
20260831012825 20 148 6.4 9.7 0.00 0.00 0.00
20260831012423 20 148 9.7 14.5 0.00 0.00 0.00
20260831012022 20 145 9.7 12.9 0.00 0.00 0.00
20260831011619 20 148 8.0 12.9 0.00 0.00 0.00
20260831011218 20 141 8.0 14.5 0.00 0.00 0.00
20260831010817 20 150 8.0 12.9 0.00 0.00 0.00
20260831010415 20 150 9.7 14.5 0.00 0.00 0.00
20260831010006 20 154 6.4 12.9 0.00 0.00 0.00
20260831005604 20 157 8.0 14.5 0.00 0.00 0.00
20260831005203 20 157 6.4 9.7 0.00 0.00 0.00
20260831004802 20 157 6.4 9.7 0.00 0.00 0.00
20260831004359 20 151 8.0 9.7 0.00 0.00 0.00
20260831003958 20 135 6.4 9.7 0.00 0.00 0.00
20260831003556 20 139 6.4 9.7 0.00 0.00 0.00
20260831003155 20 153 8.0 14.5 0.00 0.00 0.00
20260831002753 20 157 6.4 11.3 0.00 0.00 0.00
20260831002351 20 152 8.0 11.3 0.00 0.00 0.00
20260831001943 20 156 8.0 12.9 0.00 0.00 0.00
20260831001541 20 156 8.0 11.3 0.00 0.00 0.00
20260831001141 20 157 6.4 8.0 0.00 0.00 0.00
20260831000738 20 148 4.8 8.0 0.00 0.00 0.00
20260831000336 20 157 4.8 8.0 0.00 0.00 0.00
20260830235936 20 157 4.8 9.7 0.00 0.00 0.00
20260830235534 21 157 8.0 9.7 0.00 0.00 0.00
20260830235132 20 146 6.4 9.7 0.00 0.00 0.00
20260830234731 21 135 4.8 6.4 0.00 0.00 0.00
20260830234328 21 157 6.4 9.7 0.00 0.00 0.00
20260830233920 21 135 6.4 8.0 0.00 0.00 0.00
20260830233517 21 135 4.8 8.0 0.00 0.00 0.00
20260830233116 21 135 4.8 8.0 0.00 0.00 0.00
20260830232716 21 157 6.4 9.7 0.00 0.00 0.00
20260830232313 21 137 6.4 11.3 0.00 0.00 0.00
20260830231911 21 141 4.8 6.4 0.00 0.00 0.00
20260830231509 21 135 4.8 6.4 0.00 0.00 0.00
20260830231108 21 141 4.8 9.7 0.00 0.00 0.00
20260830230707 21 135 3.2 6.4 0.00 0.00 0.00
20260830230305 21 135 3.2 6.4 0.00 0.00 0.00
20260830225856 21 135 3.2 4.8 0.00 0.00 0.00
20260830225454 21 135 3.2 6.4 0.00 0.00 0.00
20260830225053 21 135 1.6 3.2 0.00 0.00 0.00
20260830224652 21 135 1.6 3.2 0.00 0.00 0.00
20260830224249 21 135 1.6 4.8 0.00 0.00 0.00
20260830223848 21 135 3.2 3.2 0.00 0.00 0.00
20260830223446 21 135 3.2 4.8 0.00 0.00 0.00
20260830223045 20 135 4.8 6.4 0.00 0.00 0.00
20260830222241 21 157 3.2 6.4 0.00 0.00 0.00
20260830221833 20 157 3.2 4.8 0.00 0.00 0.00
20260830221431 20 157 3.2 4.8 0.00 0.00 0.00
20260830221029 20 157 3.2 4.8 0.00 0.00 0.00
20260830220628 21 172 3.2 4.8 0.00 0.00 0.00
20260830220226 21 202 3.2 6.4 0.00 0.00 0.00
20260830215825 21 220 4.8 9.7 0.00 0.00 0.00
20260830215423 20 265 6.4 8.0 0.00 0.00 0.00
20260830215021 20 270 6.4 8.0 0.00 0.00 0.00
20260830214620 20 256 6.4 8.0 0.00 0.00 0.00
20260830214218 20 269 8.0 12.9 0.00 0.00 0.00
20260830213810 20 297 8.0 11.3 0.00 0.00 0.00
20260830213407 22 166 3.2 8.0 0.00 0.00 0.00
20260830213006 22 135 6.4 9.7 0.00 0.00 0.00
20260830212605 22 135 6.4 12.9 0.00 0.00 0.00
20260830212203 22 135 9.7 14.5 0.00 0.00 0.00
20260830211801 22 135 8.0 11.3 0.00 0.00 0.00
20260830211400 22 143 9.7 14.5 0.00 0.00 0.00
20260830210558 22 143 9.7 16.1 0.00 0.00 0.00
20260830210155 22 140 9.7 12.9 0.00 0.00 0.00
20260830205747 22 146 9.7 14.5 0.00 0.00 0.00
20260830205345 22 145 8.0 11.3 0.00 0.00 0.00
20260830204944 22 150 8.0 12.9 0.00 0.00 0.00
20260830204543 22 156 8.0 11.3 0.00 0.00 0.00
20260830204140 22 148 6.4 11.3 0.00 0.00 0.00
20260830203739 22 135 6.4 9.7 0.00 0.00 0.00
20260830203337 22 137 6.4 9.7 0.00 0.00 0.00
20260830202936 22 138 8.0 11.3 0.00 0.00 0.00
20260830202534 22 153 8.0 11.3 0.00 0.00 0.00
20260830202132 22 139 6.4 11.3 0.00 0.00 0.00